Weather History for Seward, AK

Change the Weather History Date:

Friday, November 2, 2012

  Actual Average Record
Temperature  
Mean Temperature 36 °F -  
Max Temperature 43 °F 37 °F 50 °F (1986)
Min Temperature 30 °F 28 °F 1 °F (1975)
Degree Days  
Heating Degree Days 30    
Moisture  
Dew Point 26 °F    
Average Humidity 71    
Maximum Humidity 93    
Minimum Humidity 46    
Precipitation  
Precipitation 0.06 in - - ()
Sea Level Pressure  
Sea Level Pressure 29.27 in    
Wind  
Wind Speed 13 mph (North)    
Max Wind Speed 23 mph    
Max Gust Speed 33 mph    
Visibility 10 miles    
Events Rain    
Averages and records for this station are not official NWS values.
T = Trace of Precipitation, MM = Missing Value Source: NWS Daily Summary

Daily Weather History Graph

Daily Weather History Graph

Search for Another Location

Airport:

Trip Planner

Search our weather history database for the weather conditions in past years. The results will help you decide how hot, cold, wet, or windy it might be!

Date:

Astronomy

Nov. 02, 2012 Rise Set
Actual Time 9:24 AM AKDT 5:56 PM AKDT
Civil Twilight 8:39 AM AKDT 6:42 PM AKDT
Nautical Twilight 7:49 AM AKDT 7:32 PM AKDT
Astronomical Twilight 7:00 AM AKDT 8:20 PM AKDT
Moon 8:16 PM AKDT (11/2) 1:29 PM AKDT (11/2)
Length of Visible Light 10h 03m
Length of Day
8h 31m
Waning Gibbous, 86% of the Moon is Illuminated
Nov 2
Waning Gibbous
Nov 6
Last Quarter
Nov 13
New
Nov 20
First Quarter
Nov 28
Full

Hourly Weather History & Observations

Time (AKDT) Temp. Windchill Dew Point Humidity Pressure Visibility Wind Dir Wind Speed Gust Speed Precip Events Conditions
12:53 AM 30.9 °F 20.2 °F 17.1 °F 57% 29.50 in 10.0 mi North 15.0 mph 27.6 mph N/A   Clear
1:53 AM 30.9 °F 21.7 °F 16.0 °F 54% 29.45 in 10.0 mi North 11.5 mph 20.7 mph N/A   Clear
2:53 AM 30.0 °F 19.5 °F 15.1 °F 54% 29.43 in 10.0 mi NNE 13.8 mph 28.8 mph N/A   Clear
3:53 AM 30.0 °F 20.0 °F 15.1 °F 54% 29.39 in 10.0 mi North 12.7 mph 31.1 mph N/A   Clear
4:53 AM 30.9 °F 18.1 °F 15.1 °F 52% 29.37 in 10.0 mi North 21.9 mph 31.1 mph N/A   Clear
5:53 AM 30.0 °F 17.5 °F 16.0 °F 56% 29.33 in 10.0 mi North 19.6 mph 24.2 mph N/A   Clear
6:53 AM 33.1 °F 22.2 °F 17.1 °F 52% 29.30 in 10.0 mi North 17.3 mph 27.6 mph N/A   Mostly Cloudy
7:53 AM 35.1 °F 25.9 °F 18.0 °F 50% 29.27 in 10.0 mi North 13.8 mph 21.9 mph N/A   Overcast
8:53 AM 37.0 °F 28.1 °F 18.0 °F 46% 29.24 in 10.0 mi North 15.0 mph 27.6 mph N/A   Overcast
9:53 AM 41.0 °F 33.5 °F 21.9 °F 47% 29.21 in 10.0 mi North 13.8 mph 26.5 mph N/A   Overcast
10:53 AM 41.0 °F 31.9 °F 24.1 °F 51% 29.19 in 10.0 mi NNW 19.6 mph 27.6 mph N/A   Overcast
11:53 AM 39.9 °F 29.7 °F 27.0 °F 60% 29.18 in 10.0 mi NNW 23.0 mph 33.4 mph N/A   Overcast
12:53 PM 41.0 °F 33.1 °F 28.9 °F 62% 29.16 in 10.0 mi NNW 15.0 mph 27.6 mph 0.00 in   Overcast
1:53 PM 39.9 °F 32.1 °F 30.0 °F 68% 29.16 in 10.0 mi NNW 13.8 mph 24.2 mph N/A   Overcast
2:53 PM 39.9 °F 32.9 °F 30.0 °F 68% 29.16 in 10.0 mi North 11.5 mph - N/A   Overcast
3:53 PM 36.0 °F 32.1 °F 28.0 °F 73% 29.19 in 10.0 mi North 4.6 mph - 0.00 in Rain Light Rain
4:53 PM 33.1 °F 25.5 °F 28.9 °F 85% 29.22 in 10.0 mi North 9.2 mph - 0.01 in Rain Light Rain
5:53 PM 33.1 °F 26.1 °F 28.9 °F 85% 29.23 in 10.0 mi NNE 8.1 mph - 0.00 in   Mostly Cloudy
6:53 PM 33.1 °F 26.1 °F 28.9 °F 85% 29.24 in 10.0 mi North 8.1 mph - N/A   Mostly Cloudy
7:53 PM 33.1 °F 28.7 °F 30.0 °F 89% 29.26 in 10.0 mi North 4.6 mph - 0.00 in Rain Light Rain
8:15 PM 33.8 °F 30.8 °F 30.2 °F 87% 29.26 in 10.0 mi NNE 3.5 mph - 0.00 in Rain Light Rain
8:39 PM 33.8 °F 29.6 °F 30.2 °F 87% 29.26 in 10.0 mi NNW 4.6 mph - 0.00 in   Overcast
8:53 PM 34.0 °F 29.8 °F 30.9 °F 89% 29.28 in 10.0 mi NNE 4.6 mph - 0.00 in   Mostly Cloudy
9:19 PM 33.8 °F 28.6 °F 30.2 °F 87% 29.27 in 10.0 mi North 5.8 mph - 0.00 in Rain Light Rain
9:27 PM 33.8 °F 26.4 °F 30.2 °F 87% 29.26 in 10.0 mi North 9.2 mph - 0.00 in   Overcast
9:53 PM 36.0 °F 31.1 °F 33.1 °F 89% 29.28 in 10.0 mi ENE 5.8 mph - 0.00 in   Mostly Cloudy
10:32 PM 37.4 °F 31.4 °F 33.8 °F 87% 29.28 in 10.0 mi North 8.1 mph - 0.03 in Rain Light Rain
10:53 PM 36.0 °F 32.1 °F 34.0 °F 93% 29.28 in 10.0 mi NE 4.6 mph - 0.03 in   Overcast
11:53 PM 37.0 °F 34.5 °F 35.1 °F 93% 29.28 in 10.0 mi NNE 3.5 mph - 0.02 in Rain Light Rain